THORAD AGENA D DEB, 4992

Orbit data source: Space-Track

THORAD AGENA D DEB, 4992 is space debris in SSO originally from a launch on Wed, 08 Apr 1970 UTC launched from the Air Force Western Test Range (AFWTR). Debris objects in space refer to the collection of defunct objects orbiting the Earth. Examples of debris include non-operational satellites, rocket bodies, and fragments generated from explosions, collisions, or faulty payload assembly.

Loading next visibility...
Identifier
4992, 1970-025HN
Orbit
SSO
Country
Flag of USUS
Related business
Manufacturer
Unknown
Mission
Spacecraft
Bus & Motor
Unknown
Mass
Unknown
Launch date (UTC)
1970-04-08 (56 years ago)
Launch vehicle
Unknown
Launch site
Air Force Western Test Range (AFWTR)
Object type
Payload
Rocket body
Debris
Shape & HBR
Unknown shape, 0.1 m
Radar Cross Section
Small (<0.1 m²)

Expand to show TLE details & history
Last TLE update: 15 hours ago

TLE from 15 hours ago
0 THORAD AGENA D DEB
1 04992U 70025HN  25300.91130069  .00000191  00000-0  31454-3 0  9998
2 04992 100.1278 139.2707 0015054 214.1292 267.9053 13.61037286751596
Epoch: 2025-10-27T21:52Z
TLE epoch observation values (Epoch: 2025-10-27T21:52:16.379Z)
Latitude
56.82695°
Longitude
-29.52994°
Altitude
1,041.761 km
Speed
7.336 km/s
True Right ascension
22h 20m 10s
True Declination
56° 40' 31"
Sunlit
Object was in daylight at epoch
Visualization orbit readout
Latitude
Unknown
Longitude
Unknown
Altitude
Unknown
Speed
Unknown
Apparent Right ascension
Unknown
Apparent Declination
Unknown
Sunlit
N/A
Visualization observer readout
Local Sidereal Time
07:50:12
Azimuth
Unknown
Elevation
Unknown
Doppler factor
Unknown
Orbital elements
Apogee altitude
1,040.385 km
Perigee altitude
1,018.083 km
Semi-major axis
7,407.371 km
Eccentricity
0.00151
Inclination
100.1278°
RAAN
139.2707°
Arg. of periapsis
214.1292°
True anomaly
267.73292°
Mean anomaly
267.9053°
Eccentric anomaly
267.81911°
Mean motion
3.40445 °/min
Orbital period
105.74 mins
BSTAR
0.00031454
Loading maneuver chart data...
Computing Atmospheric mass density...

Documentation

Showing up to 5 results
|